• In Belarus
  • List of Countries
  • For 7 days
  • Water Temperature
  • Satellite Maps
  • Weather Map
  • Weather Widgets
  • user-avatar
    Login

    Hourly Weather Taungdżi

    Today, 22 April, Monday

    Time Temperature Precipitation Wind Pressure Humidity
    00:00 +20°C° 0 mm 0 mps 646 mmHg 45%
    01:00 +20°C° 0 mm 0 mps 646 mmHg 46%
    02:00 +19°C° 0 mm 0 mps 646 mmHg 47%
    03:00 +19°C° 0 mm 0 mps 646 mmHg 48%
    04:00 +20°C° 0 mm 0 mps 646 mmHg 47%
    05:00 +20°C° 0 mm 0 mps 647 mmHg 47%
    06:00 +21°C° 0 mm 0 mps 647 mmHg 47%
    07:00 +24°C° 0 mm 0 mps 648 mmHg 40%
    08:00 +29°C° 0 mm 1 mps 650 mmHg 33%
    09:00 +32°C° 0 mm 1 mps 651 mmHg 27%
    10:00 +33°C° 0 mm 1 mps 651 mmHg 25%
    11:00 +35°C° 0 mm 2 mps 651 mmHg 23%
    12:00 +36°C° 0 mm 3 mps 650 mmHg 21%
    13:00 +35°C° 0 mm 3 mps 650 mmHg 23%
    14:00 +34°C° 0 mm 3 mps 649 mmHg 24%
    15:00 +34°C° 0 mm 3 mps 648 mmHg 25%
    16:00 +33°C° 0 mm 3 mps 648 mmHg 27%
    17:00 +30°C° 0 mm 2 mps 647 mmHg 29%
    18:00 +29°C° 0 mm 2 mps 647 mmHg 32%
    19:00 +27°C° 0.1 mm 1 mps 647 mmHg 34%
    20:00 +26°C° 0.1 mm 1 mps 647 mmHg 36%
    21:00 +25°C° 0.1 mm 1 mps 647 mmHg 38%
    22:00 +22°C° 0.1 mm 0 mps 647 mmHg 38%
    23:00 +22°C° 0.1 mm 0 mps 647 mmHg 39%

    Tomorrow, 23 April, Tuesday

    Time Temperature Precipitation Wind Pressure Humidity
    00:00 +21°C° 0.1 mm 0 mps 648 mmHg 39%
    01:00 +22°C° 0.2 mm 1 mps 647 mmHg 44%
    02:00 +22°C° 0.2 mm 1 mps 647 mmHg 49%
    03:00 +21°C° 0.2 mm 1 mps 647 mmHg 54%
    04:00 +21°C° 0 mm 1 mps 647 mmHg 57%
    05:00 +22°C° 0 mm 1 mps 648 mmHg 61%
    06:00 +22°C° 0 mm 1 mps 648 mmHg 64%
    07:00 +25°C° 0 mm 1 mps 649 mmHg 53%
    08:00 +29°C° 0 mm 2 mps 651 mmHg 42%
    09:00 +32°C° 0 mm 2 mps 652 mmHg 31%
    10:00 +34°C° 0 mm 2 mps 652 mmHg 27%
    11:00 +35°C° 0 mm 3 mps 652 mmHg 24%
    12:00 +37°C° 0 mm 3 mps 652 mmHg 20%
    13:00 +36°C° 0 mm 3 mps 651 mmHg 20%
    14:00 +36°C° 0 mm 3 mps 650 mmHg 20%
    15:00 +35°C° 0 mm 3 mps 649 mmHg 20%
    16:00 +34°C° 0 mm 3 mps 649 mmHg 23%
    17:00 +31°C° 0 mm 2 mps 649 mmHg 26%
    18:00 +29°C° 0 mm 2 mps 648 mmHg 30%
    19:00 +28°C° 0.1 mm 1 mps 648 mmHg 34%
    20:00 +27°C° 0.1 mm 1 mps 648 mmHg 39%
    21:00 +25°C° 0.1 mm 1 mps 649 mmHg 44%
    22:00 +25°C° 0 mm 1 mps 648 mmHg 45%
    23:00 +22°C° 0 mm 0 mps 648 mmHg 46%

    Day after tomorrow, 24 April, Wednesday

    Time Temperature Precipitation Wind Pressure Humidity
    00:00 +21°C° 0 mm 0 mps 648 mmHg 48%
    01:00 +23°C° 0 mm 1 mps 648 mmHg 49%
    02:00 +23°C° 0 mm 1 mps 648 mmHg 51%
    03:00 +22°C° 0 mm 1 mps 647 mmHg 53%
    04:00 +23°C° 0 mm 1 mps 648 mmHg 54%
    05:00 +23°C° 0 mm 1 mps 648 mmHg 56%
    06:00 +23°C° 0 mm 1 mps 649 mmHg 57%
    07:00 +26°C° 0 mm 1 mps 650 mmHg 47%
    08:00 +29°C° 0 mm 1 mps 652 mmHg 37%
    09:00 +33°C° 0 mm 1 mps 653 mmHg 27%
    10:00 +35°C° 0 mm 2 mps 653 mmHg 24%
    11:00 +36°C° 0 mm 2 mps 652 mmHg 22%
    12:00 +37°C° 0 mm 3 mps 652 mmHg 19%
    13:00 +36°C° 0 mm 3 mps 651 mmHg 20%
    14:00 +36°C° 0 mm 3 mps 650 mmHg 20%
    15:00 +35°C° 0 mm 3 mps 649 mmHg 20%
    16:00 +34°C° 0 mm 3 mps 649 mmHg 24%
    17:00 +31°C° 0 mm 2 mps 649 mmHg 27%
    18:00 +29°C° 0 mm 1 mps 648 mmHg 30%
    19:00 +28°C° 0 mm 1 mps 648 mmHg 32%
    20:00 +27°C° 0 mm 1 mps 648 mmHg 35%
    21:00 +24°C° 0 mm 0 mps 648 mmHg 37%
    22:00 +23°C° 0 mm 0 mps 648 mmHg 38%
    23:00 +22°C° 0 mm 0 mps 648 mmHg 38%

    25 April, Thursday

    Time Temperature Precipitation Wind Pressure Humidity
    00:00 +22°C° 0 mm 0 mps 648 mmHg 38%
    01:00 +22°C° 0 mm 0 mps 648 mmHg 39%
    02:00 +21°C° 0 mm 0 mps 647 mmHg 39%
    03:00 +21°C° 0 mm 0 mps 647 mmHg 40%
    04:00 +21°C° 0 mm 0 mps 648 mmHg 40%
    05:00 +21°C° 0 mm 0 mps 648 mmHg 39%
    06:00 +24°C° 0 mm 1 mps 649 mmHg 39%
    07:00 +28°C° 0 mm 1 mps 650 mmHg 32%
    08:00 +31°C° 0 mm 1 mps 652 mmHg 25%
    09:00 +35°C° 0 mm 1 mps 653 mmHg 18%
    10:00 +36°C° 0 mm 1 mps 653 mmHg 17%
    11:00 +38°C° 0 mm 2 mps 652 mmHg 16%
    12:00 +38°C° 0 mm 2 mps 652 mmHg 15%
    13:00 +37°C° 0 mm 2 mps 651 mmHg 16%
    14:00 +37°C° 0 mm 3 mps 650 mmHg 17%
    15:00 +36°C° 0 mm 3 mps 649 mmHg 18%
    16:00 +34°C° 0 mm 3 mps 649 mmHg 20%
    17:00 +31°C° 0 mm 2 mps 648 mmHg 22%
    18:00 +30°C° 0 mm 2 mps 648 mmHg 25%
    19:00 +29°C° 0 mm 2 mps 648 mmHg 26%
    20:00 +27°C° 0 mm 1 mps 648 mmHg 28%
    21:00 +26°C° 0 mm 1 mps 648 mmHg 30%
    22:00 +26°C° 0 mm 1 mps 648 mmHg 31%
    23:00 +23°C° 0 mm 0 mps 647 mmHg 32%

    26 April, Friday

    Time Temperature Precipitation Wind Pressure Humidity
    00:00 +23°C° 0 mm 0 mps 647 mmHg 33%
    01:00 +22°C° 0 mm 0 mps 647 mmHg 34%
    02:00 +22°C° 0 mm 0 mps 647 mmHg 36%
    03:00 +23°C° 0 mm 1 mps 646 mmHg 37%
    04:00 +23°C° 0 mm 1 mps 647 mmHg 38%
    05:00 +24°C° 0 mm 1 mps 647 mmHg 39%
    06:00 +24°C° 0 mm 1 mps 648 mmHg 40%
    07:00 +28°C° 0 mm 1 mps 649 mmHg 33%
    08:00 +31°C° 0 mm 1 mps 651 mmHg 27%
    09:00 +35°C° 0 mm 1 mps 652 mmHg 21%
    10:00 +36°C° 0 mm 1 mps 652 mmHg 19%
    11:00 +37°C° 0 mm 2 mps 651 mmHg 18%
    12:00 +38°C° 0 mm 3 mps 651 mmHg 16%
    13:00 +37°C° 0 mm 3 mps 650 mmHg 17%
    14:00 +37°C° 0 mm 3 mps 649 mmHg 17%
    15:00 +36°C° 0 mm 4 mps 648 mmHg 17%
    16:00 +35°C° 0 mm 3 mps 648 mmHg 20%
    17:00 +32°C° 0 mm 2 mps 647 mmHg 22%
    18:00 +30°C° 0 mm 2 mps 647 mmHg 24%
    19:00 +29°C° 0 mm 2 mps 647 mmHg 26%
    20:00 +28°C° 0 mm 1 mps 647 mmHg 29%
    21:00 +26°C° 0 mm 1 mps 647 mmHg 31%
    22:00 +26°C° 0 mm 1 mps 647 mmHg 32%
    23:00 +25°C° 0 mm 1 mps 647 mmHg 33%

    27 April, Saturday

    Time Temperature Precipitation Wind Pressure Humidity
    00:00 +25°C° 0 mm 1 mps 647 mmHg 34%
    01:00 +24°C° 0 mm 1 mps 647 mmHg 37%
    02:00 +24°C° 0 mm 1 mps 646 mmHg 39%
    03:00 +23°C° 0 mm 1 mps 646 mmHg 42%
    04:00 +23°C° 0 mm 1 mps 647 mmHg 44%
    05:00 +24°C° 0 mm 1 mps 647 mmHg 47%
    06:00 +24°C° 0 mm 1 mps 648 mmHg 49%
    07:00 +27°C° 0 mm 1 mps 649 mmHg 41%
    08:00 +30°C° 0 mm 2 mps 650 mmHg 34%
    09:00 +34°C° 0 mm 2 mps 651 mmHg 26%
    10:00 +35°C° 0 mm 2 mps 651 mmHg 23%
    11:00 +36°C° 0 mm 3 mps 651 mmHg 21%
    12:00 +37°C° 0 mm 3 mps 650 mmHg 18%
    13:00 +37°C° 0 mm 4 mps 650 mmHg 18%
    14:00 +36°C° 0 mm 4 mps 649 mmHg 18%
    15:00 +36°C° 0 mm 4 mps 648 mmHg 18%
    16:00 +34°C° 0 mm 3 mps 648 mmHg 20%
    17:00 +33°C° 0 mm 3 mps 647 mmHg 23%
    18:00 +30°C° 0 mm 2 mps 647 mmHg 25%
    19:00 +29°C° 0 mm 1 mps 647 mmHg 28%
    20:00 +27°C° 0 mm 1 mps 647 mmHg 30%
    21:00 +26°C° 0 mm 1 mps 647 mmHg 32%
    22:00 +25°C° 0 mm 1 mps 647 mmHg 33%
    23:00 +25°C° 0 mm 1 mps 647 mmHg 34%
    Show more